Location: Nairn
(57.5833°N, 3.8667°W)
Time: 16:07:35
(UTC+00:00)

Altair - Visible Passes

Search period start: 26 November 2020 00:00
Search period end: 06 December 2020 00:00
Orbit: 1502 x 1682 km, 47.2° (Epoch: 25 November)

Date Brightness Start Highest point End Pass type
(mag) Time Alt. Az. Time Alt. Az. Time Alt. Az.
26 Nov 9.1 04:17:55 14° S 04:17:55 14° S 04:19:37 10° S visible
27 Nov 9.3 03:54:35 11° S 03:54:35 11° S 03:54:54 10° S visible
28 Nov 9.4 20:42:00 10° SSW 20:42:19 11° SSW 20:42:19 11° SSW visible
29 Nov 9.1 20:17:08 10° SSW 20:18:55 15° S 20:18:55 15° S visible
30 Nov 8.9 19:52:18 10° SSW 19:55:28 19° S 19:55:28 19° S visible
01 Dec 8.7 19:27:30 10° S 19:31:59 21° SSE 19:31:59 21° SSE visible
01 Dec 9.3 21:28:42 10° SW 21:30:02 15° SW 21:30:02 15° SW visible
02 Dec 8.6 19:02:43 10° S 19:08:27 22° SSE 19:08:27 22° SSE visible
02 Dec 9.0 21:03:40 10° SW 21:06:29 21° SW 21:06:29 21° SW visible
03 Dec 8.6 18:37:59 10° S 18:44:20 21° SE 18:44:52 21° SE visible
03 Dec 8.6 20:38:39 10° SW 20:42:54 27° SSW 20:42:54 27° SSW visible
04 Dec 8.7 18:13:16 10° S 18:19:21 19° SE 18:21:15 18° ESE visible
04 Dec 8.4 20:13:38 10° SW 20:19:17 32° SSW 20:19:17 32° SSW visible
04 Dec 9.5 22:16:38 10° WSW 22:17:19 12° WSW 22:17:19 12° WSW visible
05 Dec 8.8 17:48:36 10° S 17:54:22 18° SE 17:57:35 15° ESE visible
05 Dec 8.2 19:48:38 10° SW 19:55:37 35° S 19:55:37 35° S visible
05 Dec 9.2 21:51:32 10° WSW 21:53:39 18° WSW 21:53:39 18° WSW visible
